TimeCDT,TemperatureF,Dew PointF,Humidity,Sea Level PressureIn,VisibilityMPH,Wind Direction,Wind SpeedMPH,Gust SpeedMPH,PrecipitationIn,Events,Conditions,WindDirDegrees,DateUTC
12:56 AM,72.9,70.9,93,30.00,10.0,Calm,Calm,-,N/A,,Clear,0,2013-07-21 05:56:00
1:56 AM,72.9,70.9,93,29.98,10.0,Calm,Calm,-,N/A,,Clear,0,2013-07-21 06:56:00
2:56 AM,72.0,70.0,93,29.98,10.0,Calm,Calm,-,N/A,,Scattered Clouds,0,2013-07-21 07:56:00
3:56 AM,70.9,70.9,100,29.96,10.0,Calm,Calm,-,N/A,,Partly Cloudy,0,2013-07-21 08:56:00
4:56 AM,72.0,70.9,96,29.97,10.0,South,5.8,-,N/A,,Clear,170,2013-07-21 09:56:00
5:56 AM,72.0,70.9,96,29.99,10.0,Calm,Calm,-,N/A,,Clear,0,2013-07-21 10:56:00
6:56 AM,73.9,72.9,96,30.01,10.0,Calm,Calm,-,N/A,,Clear,0,2013-07-21 11:56:00
7:56 AM,77.0,73.9,90,30.02,10.0,Calm,Calm,-,N/A,,Partly Cloudy,0,2013-07-21 12:56:00
8:56 AM,81.9,74.8,79,30.02,10.0,SSW,6.9,-,N/A,,Partly Cloudy,210,2013-07-21 13:56:00
9:56 AM,84.9,74.8,72,30.02,10.0,West,9.2,-,N/A,,Partly Cloudy,260,2013-07-21 14:56:00
10:56 AM,86.9,74.8,67,30.01,10.0,Variable,6.9,-,N/A,,Scattered Clouds,0,2013-07-21 15:56:00
11:56 AM,90.0,74.8,61,29.99,10.0,NW,8.1,-,N/A,,Scattered Clouds,310,2013-07-21 16:56:00
12:56 PM,88.9,70.9,55,29.98,10.0,WNW,12.7,-,N/A,,Scattered Clouds,290,2013-07-21 17:56:00
1:56 PM,86.0,75.9,72,29.98,10.0,East,10.4,-,0.00,,Overcast,80,2013-07-21 18:56:00
2:30 PM,80.6,75.2,84,29.96,2.5,East,3.5,-,0.00,Rain,Rain,100,2013-07-21 19:30:00
2:37 PM,80.6,75.2,84,29.96,3.0,East,4.6,-,0.00,Rain,Light Rain,100,2013-07-21 19:37:00
2:56 PM,81.9,77.0,85,29.97,10.0,East,5.8,-,0.00,,Mostly Cloudy,80,2013-07-21 19:56:00
3:10 PM,78.8,75.2,89,29.96,7.0,West,11.5,-,0.00,Rain-Thunderstorm,Heavy Thunderstorms and Rain,280,2013-07-21 20:10:00
3:56 PM,75.9,70.9,84,29.96,10.0,SE,4.6,-,0.00,,Mostly Cloudy,130,2013-07-21 20:56:00
4:56 PM,79.0,73.9,84,29.96,10.0,Calm,Calm,-,N/A,,Partly Cloudy,0,2013-07-21 21:56:00
5:56 PM,79.9,74.8,85,29.95,10.0,Calm,Calm,-,N/A,,Clear,0,2013-07-21 22:56:00
6:56 PM,79.9,72.9,79,29.97,10.0,Calm,Calm,-,N/A,,Clear,0,2013-07-21 23:56:00
7:56 PM,77.9,72.0,82,29.97,10.0,Calm,Calm,-,N/A,,Scattered Clouds,0,2013-07-22 00:56:00
8:56 PM,75.9,72.9,90,29.97,10.0,Calm,Calm,-,N/A,,Clear,0,2013-07-22 01:56:00
9:56 PM,74.8,72.0,91,30.00,10.0,South,4.6,-,N/A,,Clear,190,2013-07-22 02:56:00
10:56 PM,73.9,70.9,90,29.99,10.0,South,5.8,-,N/A,,Clear,180,2013-07-22 03:56:00
11:56 PM,72.9,70.9,93,29.98,10.0,Calm,Calm,-,N/A,,Clear,0,2013-07-22 04:56:00